AZG8117 KJFK-UBBB

Flight info

Callsign AZG8117
Flight time N/A
Altitude 29000
Route DCT GREKI DCT JUDDS DCT MARTN DCT CBIRD DCT MIILS N691A NEEKO/M086F310 DCT 54N050W 57N040W 59N030W 60N020W DCT ORTAV/N0498F310 DCT ODPEX/N0494F330 DCT INNUF DCT PIPEM DCT SMOKI DCT DENOG DCT LESNI DCT ODMIX DCT GIBSU DCT ELSAN DCT VAXIT N581 EVAKI DCT EPILO P60 ODDON M602 BANKU DCT BINKA M602 VAVUN L996 DENKO L619 ADVAB L623 LENOV/N0493F350 DCT RAZEC DCT KEKED DCT KARIL DCT DOKUD DCT EBCOL DCT URELA DCT DINRO N743 UDROS UM859 KARDE UN644 ROLIN N644 LAGAS M747 SUBUT T923 ERLEV ERLEV1F
Aircraft B77L/H-SDE1E2E3FGHIJ2J3J4J5M1RWXY/LB1D1

Departure

Time N/A
Airport John F. Kennedy International Airport (KJFK)

Arrival

Time 2026-04-27 17:25
Airport Heydar Aliyev International Airport (UBBB)
Time Latitude Longitude Altitude Speed Heading
2026-04-27 15:18 42.86070 30.37536 35266 ft 521 kts 129°
2026-04-27 15:18 42.83894 30.41492 35266 ft 521 kts 129°
2026-04-27 15:19 42.79546 30.49386 35268 ft 521 kts 129°
2026-04-27 15:19 42.75480 30.57553 35256 ft 524 kts 118°
2026-04-27 15:20 42.73043 30.66892 35265 ft 526 kts 102°
2026-04-27 15:20 42.72043 30.76686 35285 ft 527 kts 97°
2026-04-27 15:21 42.71135 30.86580 35259 ft 528 kts 98°
2026-04-27 15:21 42.70157 30.96485 35278 ft 528 kts 98°
2026-04-27 15:22 42.69134 31.06365 35264 ft 529 kts 98°
2026-04-27 15:22 42.68102 31.16196 35268 ft 529 kts 98°
2026-04-27 15:23 42.67058 31.26091 35269 ft 529 kts 98°
2026-04-27 15:23 42.66009 31.35976 35267 ft 528 kts 98°
2026-04-27 15:24 42.64952 31.45853 35262 ft 529 kts 99°
2026-04-27 15:24 42.63886 31.55735 35264 ft 529 kts 99°
2026-04-27 15:25 42.62818 31.65548 35265 ft 529 kts 99°
2026-04-27 15:25 42.61735 31.75424 35262 ft 529 kts 99°
2026-04-27 15:26 42.60643 31.85299 35262 ft 529 kts 99°
2026-04-27 15:26 42.59544 31.95170 35255 ft 529 kts 99°
2026-04-27 15:27 42.58421 32.04965 35252 ft 529 kts 101°
2026-04-27 15:27 42.57220 32.14798 35264 ft 528 kts 99°
2026-04-27 15:28 42.56109 32.24651 35254 ft 528 kts 99°
2026-04-27 15:28 42.54995 32.34494 35268 ft 528 kts 99°
2026-04-27 15:29 42.53864 32.44270 35264 ft 528 kts 99°
2026-04-27 15:29 42.52709 32.54108 35262 ft 529 kts 99°
2026-04-27 15:30 42.51547 32.63945 35262 ft 529 kts 99°
2026-04-27 15:30 42.50374 32.73803 35262 ft 529 kts 100°
2026-04-27 15:31 42.49194 32.83648 35253 ft 529 kts 100°
2026-04-27 15:31 42.48015 32.93410 35255 ft 529 kts 100°
2026-04-27 15:32 42.46818 33.03255 35255 ft 529 kts 100°
2026-04-27 15:32 42.45615 33.13084 35261 ft 529 kts 100°
2026-04-27 15:33 42.44411 33.22916 35250 ft 529 kts 100°
2026-04-27 15:33 42.43215 33.32675 35259 ft 529 kts 100°
2026-04-27 15:34 42.42002 33.42492 35256 ft 528 kts 100°
2026-04-27 15:34 42.40764 33.52294 35253 ft 529 kts 100°
2026-04-27 15:35 42.39509 33.62103 35253 ft 530 kts 101°
2026-04-27 15:35 42.38257 33.71858 35255 ft 530 kts 101°
2026-04-27 15:36 42.36994 33.81648 35268 ft 530 kts 101°
2026-04-27 15:36 42.35717 33.91472 35252 ft 530 kts 101°
2026-04-27 15:37 42.34435 34.01288 35256 ft 530 kts 101°
2026-04-27 15:37 42.33150 34.11085 35257 ft 529 kts 101°
2026-04-27 15:38 42.31868 34.20790 35259 ft 529 kts 101°
2026-04-27 15:38 42.30568 34.30569 35258 ft 528 kts 101°
2026-04-27 15:39 42.29264 34.40317 35254 ft 528 kts 101°
2026-04-27 15:39 42.27935 34.50050 35266 ft 528 kts 101°
2026-04-27 15:40 42.26600 34.59728 35248 ft 528 kts 101°
2026-04-27 15:40 42.25251 34.69471 35248 ft 528 kts 101°
2026-04-27 15:41 42.23897 34.79205 35256 ft 528 kts 101°
2026-04-27 15:41 42.22538 34.88931 35255 ft 528 kts 101°
2026-04-27 15:42 42.21175 34.98661 35260 ft 528 kts 102°
2026-04-27 15:42 42.19815 35.08316 35254 ft 527 kts 102°
2026-04-27 15:43 42.18437 35.18028 35261 ft 527 kts 102°
2026-04-27 15:43 42.17050 35.27737 35253 ft 527 kts 102°
2026-04-27 15:44 42.15657 35.37440 35259 ft 527 kts 102°
2026-04-27 15:44 42.14268 35.47057 35265 ft 527 kts 102°
2026-04-27 15:45 42.12861 35.56775 35258 ft 528 kts 102°
2026-04-27 15:45 42.11447 35.66485 35261 ft 528 kts 102°
2026-04-27 15:46 42.10027 35.76184 35254 ft 529 kts 102°
2026-04-27 15:46 42.08606 35.85827 35257 ft 528 kts 102°
2026-04-27 15:47 42.07168 35.95522 35256 ft 528 kts 102°
2026-04-27 15:47 42.05720 36.05221 35253 ft 528 kts 102°
2026-04-27 15:48 42.04266 36.14907 35255 ft 528 kts 102°
2026-04-27 15:49 42.02074 36.29399 35260 ft 527 kts 102°
2026-04-27 15:49 42.00613 36.38987 35262 ft 526 kts 102°
2026-04-27 15:50 41.99135 36.48626 35269 ft 526 kts 102°
2026-04-27 15:50 41.97650 36.58260 35263 ft 527 kts 102°
2026-04-27 15:51 41.96164 36.67842 35264 ft 528 kts 103°
2026-04-27 15:51 41.94659 36.77486 35260 ft 528 kts 103°
2026-04-27 15:52 41.93145 36.87139 35265 ft 528 kts 103°
2026-04-27 15:52 41.91627 36.96769 35268 ft 528 kts 103°
2026-04-27 15:53 41.90357 37.06405 35254 ft 528 kts 96°
2026-04-27 15:53 41.90132 37.16257 35257 ft 528 kts 90°
2026-04-27 15:54 41.90053 37.26103 35254 ft 527 kts 91°
2026-04-27 15:54 41.89931 37.35933 35270 ft 527 kts 91°
2026-04-27 15:55 41.89769 37.45758 35261 ft 527 kts 91°
2026-04-27 15:55 41.89594 37.55513 35262 ft 527 kts 91°
2026-04-27 15:56 41.89410 37.65341 35260 ft 526 kts 91°
2026-04-27 15:56 41.89221 37.75159 35265 ft 526 kts 91°
2026-04-27 15:57 41.89025 37.84967 35260 ft 526 kts 91°
2026-04-27 15:57 41.88822 37.94711 35264 ft 526 kts 92°
2026-04-27 15:58 41.88607 38.04532 35263 ft 527 kts 92°
2026-04-27 15:58 41.88385 38.14363 35260 ft 526 kts 92°
2026-04-27 15:59 41.88156 38.24110 35257 ft 526 kts 92°
2026-04-27 15:59 41.87917 38.33928 35264 ft 526 kts 92°
2026-04-27 16:00 41.87670 38.43738 35244 ft 526 kts 92°
2026-04-27 16:00 41.87415 38.53546 35261 ft 525 kts 92°
2026-04-27 16:01 41.87152 38.63310 35260 ft 523 kts 92°
2026-04-27 16:01 41.86882 38.73056 35257 ft 522 kts 92°
2026-04-27 16:02 41.86606 38.82717 35259 ft 522 kts 92°
2026-04-27 16:02 41.86320 38.92440 35262 ft 520 kts 92°
2026-04-27 16:03 41.86027 39.02123 35255 ft 519 kts 93°
2026-04-27 16:03 41.85726 39.11794 35260 ft 519 kts 93°
2026-04-27 16:04 41.85417 39.21470 35260 ft 519 kts 93°
2026-04-27 16:04 41.85103 39.31061 35258 ft 519 kts 93°
2026-04-27 16:05 41.84778 39.40714 35255 ft 518 kts 93°
2026-04-27 16:05 41.84447 39.50374 35258 ft 518 kts 93°
2026-04-27 16:06 41.84114 39.60012 35254 ft 517 kts 93°
2026-04-27 16:06 41.83785 39.69589 35251 ft 517 kts 93°
2026-04-27 16:07 41.83446 39.79218 35257 ft 517 kts 93°
2026-04-27 16:07 41.83098 39.88828 35251 ft 516 kts 93°
2026-04-27 16:08 41.82743 39.98429 35245 ft 515 kts 93°
2026-04-27 16:08 41.82380 40.08031 35240 ft 515 kts 94°
2026-04-27 16:09 41.82006 40.17544 35242 ft 514 kts 94°
2026-04-27 16:09 41.81394 40.31882 35239 ft 513 kts 94°
2026-04-27 16:10 41.80559 40.50977 35236 ft 513 kts 94°
2026-04-27 16:11 41.79917 40.65244 35239 ft 513 kts 94°
2026-04-27 16:12 41.79226 40.79562 35240 ft 514 kts 94°
2026-04-27 16:13 41.78506 40.93889 35239 ft 515 kts 95°
2026-04-27 16:13 41.77777 41.08164 35235 ft 514 kts 95°
2026-04-27 16:14 41.76776 41.27252 35246 ft 513 kts 95°
2026-04-27 16:15 41.75748 41.46228 35262 ft 512 kts 95°
2026-04-27 16:16 41.74687 41.65228 35262 ft 511 kts 95°
2026-04-27 16:17 41.73601 41.84126 35254 ft 510 kts 96°
2026-04-27 16:18 41.72483 42.03050 35237 ft 509 kts 96°
2026-04-27 16:19 41.71914 42.12492 35240 ft 510 kts 96°
2026-04-27 16:20 41.70772 42.31386 35229 ft 512 kts 96°
2026-04-27 16:21 41.69892 42.45633 35222 ft 513 kts 96°
2026-04-27 16:22 41.68688 42.64665 35200 ft 513 kts 97°
2026-04-27 16:22 41.67770 42.78854 35185 ft 512 kts 97°
2026-04-27 16:23 41.66822 42.93076 35187 ft 511 kts 97°
2026-04-27 16:24 41.66165 43.02548 35168 ft 511 kts 97°
2026-04-27 16:25 41.64838 43.21392 35173 ft 511 kts 98°
2026-04-27 16:26 41.63479 43.40305 35170 ft 512 kts 98°
2026-04-27 16:27 41.62091 43.59233 35160 ft 512 kts 98°
2026-04-27 16:28 41.60325 43.82847 35137 ft 513 kts 98°
2026-04-27 16:29 41.58509 44.06457 35113 ft 512 kts 99°
2026-04-27 16:30 41.56688 44.25271 35082 ft 507 kts 107°
2026-04-27 16:31 41.51184 44.47449 35065 ft 505 kts 112°
2026-04-27 16:32 41.47860 44.60791 35056 ft 505 kts 111°
2026-04-27 16:33 41.44532 44.74118 35039 ft 505 kts 112°
2026-04-27 16:33 41.42301 44.82999 35041 ft 505 kts 112°
2026-04-27 16:34 41.40076 44.91822 35012 ft 506 kts 112°
2026-04-27 16:34 41.37829 45.00702 35020 ft 507 kts 112°
2026-04-27 16:35 41.35567 45.09606 35023 ft 508 kts 112°
2026-04-27 16:36 41.32149 45.22959 35011 ft 509 kts 112°
2026-04-27 16:36 41.29874 45.31811 35015 ft 509 kts 112°
2026-04-27 16:37 41.27576 45.40727 35001 ft 510 kts 112°
2026-04-27 16:37 41.25271 45.49638 35007 ft 510 kts 112°
2026-04-27 16:38 41.22956 45.58556 35002 ft 511 kts 112°
2026-04-27 16:38 41.20647 45.67412 35019 ft 511 kts 112°
2026-04-27 16:39 41.18293 45.76310 34994 ft 511 kts 113°
2026-04-27 16:39 41.15927 45.85201 34981 ft 511 kts 113°
2026-04-27 16:40 41.13557 45.94093 34990 ft 511 kts 113°
2026-04-27 16:40 41.11184 46.02971 34989 ft 511 kts 113°
2026-04-27 16:41 41.08819 46.11791 34974 ft 511 kts 113°
2026-04-27 16:41 41.06432 46.20663 34977 ft 511 kts 113°
2026-04-27 16:42 41.04037 46.29533 34977 ft 511 kts 113°
2026-04-27 16:42 41.01659 46.38419 34970 ft 512 kts 113°
2026-04-27 16:43 40.99292 46.47313 34951 ft 512 kts 113°
2026-04-27 16:43 40.96932 46.56133 34957 ft 512 kts 113°
2026-04-27 16:44 40.94546 46.65008 34951 ft 512 kts 113°
2026-04-27 16:44 40.92154 46.73875 34929 ft 512 kts 113°
2026-04-27 16:45 40.90040 46.82873 34948 ft 515 kts 106°
2026-04-27 16:45 40.89068 46.92231 34948 ft 519 kts 98°
2026-04-27 16:46 40.88456 47.01754 34942 ft 520 kts 98°
2026-04-27 16:46 40.87798 47.11269 34934 ft 520 kts 98°
2026-04-27 16:47 40.87097 47.20768 34930 ft 519 kts 98°
2026-04-27 16:47 40.86385 47.30251 34951 ft 518 kts 98°
2026-04-27 16:48 40.85673 47.39661 34961 ft 518 kts 98°
2026-04-27 16:48 40.84961 47.49037 34676 ft 508 kts 98°
2026-04-27 16:49 40.84307 47.58367 33248 ft 504 kts 97°
2026-04-27 16:49 40.84036 47.62893 32750 ft 497 kts 97°
2026-04-27 16:49 40.83771 47.67419 32260 ft 490 kts 97°
2026-04-27 16:49 40.83508 47.71871 31778 ft 484 kts 97°
2026-04-27 16:50 40.83243 47.76273 31309 ft 479 kts 97°
2026-04-27 16:50 40.82974 47.80628 30843 ft 473 kts 97°
2026-04-27 16:50 40.82703 47.84938 30393 ft 469 kts 97°
2026-04-27 16:50 40.82430 47.89209 29904 ft 464 kts 97°
2026-04-27 16:51 40.82158 47.93439 29380 ft 460 kts 97°
2026-04-27 16:51 40.81888 47.97624 28896 ft 455 kts 97°
2026-04-27 16:51 40.81619 48.01762 28423 ft 450 kts 97°
2026-04-27 16:51 40.81355 48.05796 27968 ft 445 kts 97°
2026-04-27 16:52 40.81089 48.09853 27493 ft 442 kts 97°
2026-04-27 16:52 40.80825 48.13862 27049 ft 438 kts 97°
2026-04-27 16:52 40.80560 48.17859 26589 ft 435 kts 97°
2026-04-27 16:52 40.80296 48.21819 26147 ft 431 kts 97°
2026-04-27 16:53 40.80032 48.25749 25705 ft 429 kts 97°
2026-04-27 16:53 40.79769 48.29656 25257 ft 426 kts 97°
2026-04-27 16:53 40.79507 48.33538 24842 ft 423 kts 97°
2026-04-27 16:53 40.79244 48.37397 24405 ft 421 kts 97°
2026-04-27 16:54 40.78985 48.41186 23963 ft 419 kts 97°
2026-04-27 16:54 40.78722 48.45010 23523 ft 418 kts 97°
2026-04-27 16:54 40.78460 48.48811 23023 ft 416 kts 96°
2026-04-27 16:54 40.78198 48.52600 22581 ft 413 kts 97°
2026-04-27 16:55 40.77936 48.56357 22135 ft 410 kts 96°
2026-04-27 16:55 40.77676 48.60084 21699 ft 407 kts 96°
2026-04-27 16:55 40.77416 48.63785 21270 ft 404 kts 97°
2026-04-27 16:55 40.77156 48.67457 20858 ft 401 kts 96°
2026-04-27 16:56 40.76901 48.71060 20458 ft 398 kts 97°
2026-04-27 16:56 40.76643 48.74675 20029 ft 396 kts 96°
2026-04-27 16:56 40.76384 48.78296 19609 ft 394 kts 96°
2026-04-27 16:56 40.76126 48.81883 19196 ft 393 kts 96°
2026-04-27 16:57 40.75867 48.85460 18768 ft 391 kts 97°
2026-04-27 16:57 40.75608 48.89031 18355 ft 390 kts 96°
2026-04-27 16:57 40.75349 48.92593 17877 ft 389 kts 96°
2026-04-27 16:57 40.75089 48.96129 17441 ft 388 kts 96°
2026-04-27 16:58 40.74833 48.99625 17008 ft 386 kts 96°
2026-04-27 16:58 40.74574 49.03143 16572 ft 385 kts 96°
2026-04-27 16:58 40.74315 49.06647 16149 ft 383 kts 96°
2026-04-27 16:58 40.74055 49.10136 15737 ft 382 kts 96°
2026-04-27 16:59 40.73796 49.13620 15316 ft 382 kts 97°
2026-04-27 16:59 40.73536 49.17096 14893 ft 381 kts 97°
2026-04-27 16:59 40.73274 49.20576 14476 ft 381 kts 96°
2026-04-27 16:59 40.73012 49.24048 14063 ft 380 kts 96°
2026-04-27 17:00 40.72814 49.28579 13895 ft 369 kts 92°
2026-04-27 17:00 40.72720 49.34250 13712 ft 384 kts 91°
2026-04-27 17:00 40.72661 49.37800 13596 ft 390 kts 91°
2026-04-27 17:01 40.72593 49.41357 13451 ft 386 kts 92°
2026-04-27 17:01 40.72518 49.44870 13338 ft 382 kts 92°
2026-04-27 17:01 40.72437 49.48351 13241 ft 378 kts 92°
2026-04-27 17:01 40.72353 49.51804 13105 ft 375 kts 92°
2026-04-27 17:02 40.72268 49.55237 13002 ft 377 kts 92°
2026-04-27 17:02 40.72182 49.58653 12918 ft 378 kts 92°
2026-04-27 17:02 40.72096 49.62097 12786 ft 375 kts 92°
2026-04-27 17:02 40.72008 49.65531 12678 ft 374 kts 92°
2026-04-27 17:03 40.71894 49.68935 12560 ft 366 kts 97°
2026-04-27 17:03 40.71175 49.72114 12451 ft 364 kts 121°
2026-04-27 17:03 40.69590 49.74700 12346 ft 365 kts 144°
2026-04-27 17:03 40.67439 49.76411 12253 ft 360 kts 162°
2026-04-27 17:04 40.65047 49.77231 12151 ft 351 kts 178°
2026-04-27 17:04 40.62666 49.77095 12032 ft 340 kts 191°
2026-04-27 17:04 40.60350 49.76667 11836 ft 340 kts 192°
2026-04-27 17:05 40.53816 49.75451 11283 ft 336 kts 193°
2026-04-27 17:05 40.51505 49.75029 11091 ft 335 kts 193°
2026-04-27 17:05 40.49221 49.74614 10871 ft 328 kts 192°
2026-04-27 17:06 40.47026 49.74245 10683 ft 313 kts 194°
2026-04-27 17:06 40.44961 49.73885 10472 ft 287 kts 191°
2026-04-27 17:06 40.43039 49.73563 10296 ft 274 kts 192°
2026-04-27 17:06 40.41155 49.73221 10174 ft 273 kts 194°
2026-04-27 17:07 40.39256 49.72881 10031 ft 277 kts 194°
2026-04-27 17:07 40.37339 49.72560 9841 ft 279 kts 194°
2026-04-27 17:07 40.35411 49.72218 9667 ft 280 kts 193°
2026-04-27 17:07 40.33473 49.71896 9491 ft 281 kts 193°
2026-04-27 17:08 40.31566 49.71531 9320 ft 281 kts 191°
2026-04-27 17:08 40.29632 49.71197 9143 ft 280 kts 191°
2026-04-27 17:08 40.27704 49.70878 8961 ft 279 kts 190°
2026-04-27 17:08 40.25770 49.71073 8682 ft 286 kts 162°
2026-04-27 17:09 40.23988 49.72182 8422 ft 280 kts 164°
2026-04-27 17:09 40.22101 49.72722 8135 ft 277 kts 178°
2026-04-27 17:09 40.20187 49.73086 7890 ft 277 kts 173°
2026-04-27 17:09 40.18357 49.73611 7608 ft 259 kts 171°
2026-04-27 17:10 40.16654 49.74121 7363 ft 247 kts 170°
2026-04-27 17:10 40.14980 49.74615 7168 ft 247 kts 171°
2026-04-27 17:10 40.13423 49.75391 7094 ft 247 kts 146°
2026-04-27 17:10 40.12157 49.76946 7033 ft 254 kts 137°
2026-04-27 17:11 40.10895 49.78567 7016 ft 253 kts 137°
2026-04-27 17:11 40.08391 49.81736 7000 ft 247 kts 137°
2026-04-27 17:11 40.07164 49.83284 6995 ft 245 kts 138°
2026-04-27 17:12 40.05274 49.86918 7021 ft 248 kts 114°
2026-04-27 17:12 40.04536 49.88999 7018 ft 255 kts 115°
2026-04-27 17:12 40.03763 49.91100 7018 ft 255 kts 116°
2026-04-27 17:13 40.03010 49.93129 6983 ft 250 kts 115°
2026-04-27 17:13 40.02252 49.95164 7006 ft 248 kts 115°
2026-04-27 17:13 40.01592 49.97256 7009 ft 251 kts 101°
2026-04-27 17:13 40.01358 49.99521 7011 ft 255 kts 93°
2026-04-27 17:14 40.01506 50.01824 6509 ft 257 kts 64°
2026-04-27 17:14 40.02572 50.03466 6184 ft 227 kts 25°
2026-04-27 17:14 40.04010 50.04012 5975 ft 210 kts
2026-04-27 17:14 40.05482 50.04274 5736 ft 218 kts
2026-04-27 17:15 40.06984 50.04429 5517 ft 220 kts
2026-04-27 17:15 40.08512 50.04568 5292 ft 220 kts 359°
2026-04-27 17:15 40.10019 50.04703 5056 ft 214 kts 358°
2026-04-27 17:15 40.11486 50.04834 4841 ft 207 kts 358°
2026-04-27 17:16 40.12894 50.04960 4609 ft 201 kts 358°
2026-04-27 17:16 40.14266 50.05083 4380 ft 195 kts 358°
2026-04-27 17:16 40.15612 50.05204 4220 ft 194 kts 360°
2026-04-27 17:16 40.16973 50.05325 3999 ft 199 kts
2026-04-27 17:17 40.18350 50.05448 3832 ft 201 kts 358°
2026-04-27 17:17 40.19715 50.05573 3595 ft 191 kts 360°
2026-04-27 17:17 40.20990 50.05706 3409 ft 179 kts
2026-04-27 17:18 40.23377 50.06531 3061 ft 181 kts 356°
2026-04-27 17:18 40.24644 50.06579 2867 ft 182 kts 356°
2026-04-27 17:18 40.25881 50.06602 2670 ft 173 kts 355°
2026-04-27 17:18 40.27039 50.06600 2491 ft 158 kts 354°
2026-04-27 17:19 40.28046 50.06591 2335 ft 137 kts 354°
2026-04-27 17:19 40.28963 50.06578 2197 ft 129 kts 353°
2026-04-27 17:19 40.29848 50.06565 2106 ft 126 kts 353°
2026-04-27 17:19 40.30728 50.06551 2062 ft 128 kts 353°
2026-04-27 17:20 40.31626 50.06535 2013 ft 130 kts 353°
2026-04-27 17:20 40.32520 50.06522 2018 ft 129 kts 353°
2026-04-27 17:20 40.33407 50.06510 2000 ft 121 kts 352°
2026-04-27 17:20 40.34193 50.06501 1991 ft 105 kts 351°
2026-04-27 17:21 40.34883 50.06490 2003 ft 97 kts 351°
2026-04-27 17:21 40.35561 50.06478 1996 ft 99 kts 351°
2026-04-27 17:21 40.36242 50.06467 1867 ft 98 kts 351°
2026-04-27 17:21 40.36910 50.06457 1730 ft 95 kts 351°
2026-04-27 17:22 40.37571 50.06446 1621 ft 96 kts 351°
2026-04-27 17:22 40.38257 50.06434 1466 ft 102 kts 353°
2026-04-27 17:22 40.38986 50.06434 1341 ft 107 kts 354°
2026-04-27 17:22 40.39733 50.06483 1198 ft 106 kts 349°
2026-04-27 17:23 40.40452 50.06440 1026 ft 101 kts 345°
2026-04-27 17:23 40.41139 50.06368 875 ft 99 kts 353°
2026-04-27 17:23 40.41830 50.06398 774 ft 103 kts 355°
2026-04-27 17:23 40.42589 50.06413 676 ft 116 kts 351°
2026-04-27 17:24 40.43415 50.06371 476 ft 119 kts 351°
2026-04-27 17:24 40.44245 50.06354 311 ft 119 kts 350°
2026-04-27 17:24 40.45070 50.06343 156 ft 119 kts 351°
2026-04-27 17:24 40.45914 50.06326 32 ft 124 kts 351°
2026-04-27 17:25 40.46719 50.06297 18 ft 98 kts 359°
2026-04-27 17:25 40.47247 50.06299 14 ft 53 kts 360°
2026-04-27 17:25 40.47485 50.06227 16 ft 26 kts 332°
2026-04-27 17:25 40.47569 50.06142 18 ft 15 kts 296°
2026-04-27 17:26 40.47552 50.06089 19 ft 10 kts 200°
2026-04-27 17:26 40.47401 50.06083 19 ft 27 kts 178°
2026-04-27 17:26 40.47215 50.06087 19 ft 27 kts 179°
2026-04-27 17:26 40.47029 50.06091 19 ft 27 kts 181°
2026-04-27 17:27 40.46843 50.06092 19 ft 27 kts 179°
2026-04-27 17:27 40.46656 50.06094 19 ft 27 kts 180°
2026-04-27 17:27 40.46470 50.06095 19 ft 27 kts 180°
2026-04-27 17:27 40.46286 50.06097 19 ft 27 kts 179°
2026-04-27 17:28 40.46100 50.06103 19 ft 27 kts 179°
2026-04-27 17:28 40.45951 50.06105 19 ft 17 kts 179°
2026-04-27 17:28 40.45842 50.05941 19 ft 12 kts 268°
2026-04-27 17:29 40.45841 50.05873 19 ft 3 kts 269°
2026-04-27 17:29 40.45841 50.05861 19 ft 0 kts 269°